Location: Karaa?a�
(36.7158°N, 30.4165°E)
Time: 07:21:10
(UTC+00:00)

Cosmos 2369 Rocket - Pass Details

Date: 09 April 2020
Orbit: 829 x 852 km, 71.0° (Epoch: 31 May)

Event Time Altitude Azimuth Distance (km) Brightness Sun altitude
Rises 17:02:47 0° 335° (NNW) 3,414 6.0 -7.6°
Reaches altitude 10° 17:05:16 10° 333° (NNW) 2,472 5.3 -8.1°
Maximum altitude 17:10:53 68° 251° (WSW) 906 2.6 -9.2°
Drops below altitude 10° 17:16:26 10° 170° (S) 2,441 4.3 -10.3°
Sets 17:18:52 0° 167° (SSE) 3,368 5.0 -10.7°
